Overview Statistics Trail Chart Weather Telemetry Raw packets
 

This is the latest recevied weather packets stored in our database for station/object N8TWM-13. If no packets are shown the sender has not sent any weather packets the latest 10 day(s).

<< 102 103 104 105 106 107 108 >>
Time Temp. Humidity Pressure Rain* Wind** Luminosity Snow
1787838305 24.44° C 79% 1015.1 hPa 0 mm - 394 W/m² -
1787838004 23.89° C 79% 1015.2 hPa 0 mm - 383 W/m² -
1787837698 23.33° C 81% 1015.2 hPa 0 mm - 361 W/m² -
1787837393 23.33° C 82% 1015.2 hPa 0 mm - 314 W/m² -
1787837088 23.33° C 81% 1015 hPa 0 mm - 311 W/m² -
1787836787 23.33° C 82% 1015.1 hPa 0 mm - 118 W/m² -
1787836483 22.78° C 83% 1015.1 hPa 0 mm - 285 W/m² -
1787836178 22.78° C 84% 1015.2 hPa 0 mm - 265 W/m² -
1787835873 22.22° C 84% 1014.8 hPa 0 mm - 256 W/m² -
1787835572 22.22° C 84% 1015 hPa 0 mm - 229 W/m² -
1787835268 22.22° C 84% 1015 hPa 0 mm - 225 W/m² -
1787834963 22.22° C 85% 1014.9 hPa 0 mm - 207 W/m² -
1787834662 21.67° C 87% 1015 hPa 0 mm - 187 W/m² -
1787834357 21.11° C 89% 1014.9 hPa 0 mm - 172 W/m² -
1787834053 20.56° C 89% 1015 hPa 0 mm - 166 W/m² -
1787833743 20.56° C 89% 1014.7 hPa 0 mm - 150 W/m² -
1787833438 20.56° C 89% 1015 hPa 0 mm - 135 W/m² -
1787833133 20° C 90% 1014.6 hPa 0 mm - 116 W/m² -
1787832828 20° C 90% 1014.6 hPa 0 mm - 104 W/m² -
1787832524 20° C 91% 1014.9 hPa 0 mm - 92 W/m² -
1787832223 19.44° C 92% 1014.9 hPa 0 mm - 72 W/m² -
1787831921 19.44° C 92% 1014.5 hPa 0 mm - 57 W/m² -
1787831616 19.44° C 92% 1014.7 hPa 0 mm - 47 W/m² -
1787831315 19.44° C 92% 1014.4 hPa 0 mm - 46 W/m² -
1787831012 18.89° C 92% 1014.6 hPa 0 mm - 38 W/m² -

* Rain latest hour (hover to see other rain measurements)
** Current wind speed in m/s (hover to see current wind gust speed)